Ojai, CA (93023)

11:36 AM PST on December 04, 2016 (GMT -0800)
Fairview Road | | Change Station

Elev 1056 ft 34.46 °N, 119.26 °W | Updated 8 seconds ago

Clear
Clear
72.1 °F
Feels Like 73 °F
N
0.0
Wind Variable Wind from ESE

Today
High -- | Low -- °F
--% Chance of Precip.
Yesterday
High -- | Low -- °F
Precip. -- in
Pressure 30.08 in
Visibility 10.0 miles
Clouds Clear
Heat Index 73 °F
Dew Point 18 °F
Humidity 12%
Rainfall 0.00 in
Snow Depth Not available.
6:48 AM 4:46 PM
Waxing Crescent, 25% visible
METAR KOXR 041851Z VRB04KT 10SM CLR 19/01 A3008 RMK AO2 SLP184 T01940011 $
Pressure 30.08 in
Visibility 10.0 miles
Clouds Clear
Heat Index 73 °F
Dew Point 18 °F
Humidity 12%
Rainfall 0.00 in
Snow Depth Not available.
6:48 AM 4:46 PM
Waxing Crescent, 25% visible
METAR KOXR 041851Z VRB04KT 10SM CLR 19/01 A3008 RMK AO2 SLP184 T01940011 $

10-Day Weather Forecast

Almanac

Astronomy

Dec. 04, 2016 Rise Set
Actual Time
Civil Twilight
Nautical Twilight
Astronomical Twilight
Moon
Length of Visible Light
Length of Day
Tomorrow will be .
, % of the Moon is Illuminated

Today's Extremes

State Highs State Lows

Community

WunderPhotos

Upload Photos

1,955,650 photos uploaded!

WunderBlog® & News

Nearby

Air Quality

  Air Quality AQ Index Pollutant
Not available.

Snow Depth

Station Depth Elevation

Earthquake Activity

City Distance Mag. Time & Date
Minimum magnitude displayed is 2.5.

Coastal Water Temperatures

Place Temperature

Stations

Nearby Weather Stations

Station Location Temp. Windchill Dew Point Humidity Wind Precip. Elev Updated Type
                   

Watches & Warnings

There are currently no watches in effect.